SM4IVE-5 Weather Reports


Display with metric or nautical units.
time (UTC)temp
F
wind
direction
speed
MPH
gust
MPH
rain 1hr
in
rain 24hr
in
rain mn
in
humidity
%
barometer
mb
20260902191349 59 266 1.0 9.0 0.00 0.00 0.00 74 1008.2
20260902190828 59 177 1.0 9.0 0.00 0.00 0.00 74 1008.2
20260902190328 59 223 1.0 5.0 0.00 0.00 0.00 74 1008.2
20260902185829 59 200 1.0 3.0 0.00 0.00 0.00 73 1008.3
20260902185329 59 227 1.0 3.0 0.00 0.00 0.00 73 1008.2
20260902184830 59 184 1.0 2.0 0.00 0.00 0.00 73 1008.2
20260902184350 59 242 0.0 2.0 0.00 0.00 0.00 72 1008.2
20260902183831 59 235 0.0 3.0 0.00 0.00 0.00 71 1008.2
20260902183400 59 258 0.0 3.0 0.00 0.00 0.00 71 1008.2
20260902182828 60 325 1.0 4.0 0.00 0.00 0.00 70 1008.1
20260902182328 60 309 1.0 4.0 0.00 0.00 0.00 70 1008.2
20260902181830 60 291 1.0 3.0 0.00 0.00 0.00 69 1008.2
20260902181331 60 273 0.0 7.0 0.00 0.00 0.00 69 1008.2
20260902180829 60 323 2.0 7.0 0.00 0.00 0.00 68 1008.1
20260902180336 61 286 1.0 4.0 0.00 0.00 0.00 67 1008.1
20260902175845 61 249 1.0 4.0 0.00 0.00 0.00 67 1008.1
20260902175327 61 296 2.0 4.0 0.00 0.00 0.00 66 1008.1
20260902174835 62 298 1.0 4.0 0.00 0.00 0.00 65 1008.1
20260902174329 62 322 1.0 10.0 0.00 0.00 0.00 64 1008.1
20260902173829 62 269 2.0 10.0 0.00 0.00 0.00 64 1008.0
20260902173330 63 259 3.0 13.0 0.00 0.00 0.00 63 1008.0
20260902172847 63 302 4.0 13.0 0.00 0.00 0.00 62 1007.9
20260902172326 63 294 3.0 9.0 0.00 0.00 0.00 63 1007.9
20260902171825 63 282 2.0 7.0 0.00 0.00 0.00 63 1008.0
20260902171326 63 276 2.0 9.0 0.00 0.00 0.00 63 1007.9
20260902170825 64 280 2.0 12.0 0.00 0.00 0.00 62 1008.0
20260902170326 64 273 4.0 12.0 0.00 0.00 0.00 62 1007.9
20260902165825 64 281 2.0 7.0 0.00 0.00 0.00 62 1008.0
20260902165326 64 286 2.0 9.0 0.00 0.00 0.00 61 1008.0
20260902164825 64 323 2.0 14.0 0.00 0.00 0.00 60 1008.0
20260902164347 64 275 3.0 14.0 0.00 0.00 0.00 60 1008.0
20260902163834 65 346 4.0 11.0 0.00 0.00 0.00 59 1008.0
20260902163402 65 306 2.0 11.0 0.00 0.00 0.00 58 1008.0
20260902162830 65 313 4.0 12.0 0.00 0.00 0.00 58 1007.9
20260902162330 65 295 5.0 12.0 0.00 0.00 0.00 57 1007.9
20260902161830 65 274 4.0 12.0 0.00 0.00 0.00 56 1008.0
20260902161330 66 317 4.0 12.0 0.00 0.00 0.00 55 1008.0
20260902160829 66 283 4.0 12.0 0.00 0.00 0.00 55 1008.1
20260902160328 66 279 5.0 11.0 0.00 0.00 0.00 54 1008.0
20260902155829 66 313 3.0 11.0 0.00 0.00 0.00 55 1008.0
20260902155350 66 184 3.0 13.0 0.00 0.00 0.00 55 1008.0
20260902154829 66 248 4.0 13.0 0.00 0.00 0.00 55 1008.1
20260902154350 66 312 4.0 13.0 0.00 0.00 0.00 55 1008.1
20260902153828 66 298 6.0 15.0 0.00 0.00 0.00 55 1008.1
20260902153348 66 291 7.0 17.0 0.00 0.00 0.00 55 1008.0
20260902152828 67 318 7.0 17.0 0.00 0.00 0.00 54 1008.0
20260902152328 67 314 5.0 14.0 0.00 0.00 0.00 54 1008.1
20260902151829 67 288 6.0 19.0 0.00 0.00 0.00 54 1008.1
20260902151350 67 331 7.0 15.0 0.00 0.00 0.00 53 1008.1
20260902150830 67 300 7.0 15.0 0.00 0.00 0.00 54 1008.2
20260902150329 67 342 6.0 15.0 0.00 0.00 0.00 53 1008.3
20260902145829 67 305 5.0 14.0 0.00 0.00 0.00 54 1008.2
20260902145339 67 279 8.0 16.0 0.00 0.00 0.00 54 1008.3
20260902144829 68 319 7.0 16.0 0.00 0.00 0.00 54 1008.3
20260902144329 67 286 3.0 17.0 0.00 0.00 0.00 55 1008.2
20260902143830 67 265 6.0 17.0 0.00 0.00 0.00 53 1008.2
20260902143330 67 263 6.0 17.0 0.00 0.00 0.00 53 1008.3
20260902142850 67 279 5.0 17.0 0.00 0.00 0.00 53 1008.4
20260902142336 67 277 5.0 18.0 0.00 0.00 0.00 55 1008.5
20260902141845 67 296 7.0 21.0 0.00 0.00 0.00 53 1008.3
20260902141349 68 311 9.0 18.0 0.00 0.00 0.00 52 1008.3
20260902140835 68 280 6.0 18.0 0.00 0.00 0.00 52 1008.5
20260902140324 68 275 7.0 16.0 0.00 0.00 0.00 53 1008.4
20260902135825 68 309 6.0 14.0 0.00 0.00 0.00 53 1008.2
20260902135346 68 298 6.0 16.0 0.00 0.00 0.00 52 1008.2
20260902134824 68 306 9.0 15.0 0.00 0.00 0.00 51 1008.1
20260902134324 68 279 6.0 21.0 0.00 0.00 0.00 52 1008.1
20260902133845 68 292 9.0 21.0 0.00 0.00 0.00 48 1008.2
20260902133325 69 289 10.0 21.0 0.00 0.00 0.00 50 1008.0
20260902132825 69 296 7.0 18.0 0.00 0.00 0.00 51 1008.1
20260902132326 69 279 9.0 18.0 0.00 0.00 0.00 49 1007.9
20260902131826 70 289 6.0 13.0 0.00 0.00 0.00 49 1008.0
20260902131328 70 309 4.0 17.0 0.00 0.00 0.00 46 1008.0
20260902130828 70 288 5.0 20.0 0.00 0.00 0.00 44 1007.9
20260902130327 70 360 4.0 17.0 0.00 0.00 0.00 49 1007.9
20260902125828 69 101 6.0 17.0 0.00 0.00 0.00 48 1007.9
20260902125328 69 219 4.0 13.0 0.00 0.00 0.00 54 1007.8
20260902124836 69 306 4.0 15.0 0.00 0.00 0.00 52 1007.8
20260902124324 70 311 4.0 13.0 0.00 0.00 0.00 51 1007.7
20260902123825 70 304 4.0 15.0 0.00 0.00 0.00 50 1007.8
20260902123326 70 284 6.0 15.0 0.00 0.00 0.00 50 1007.8
20260902122827 70 315 4.0 18.0 0.00 0.00 0.00 49 1007.9
20260902122334 70 276 7.0 18.0 0.00 0.00 0.00 49 1008.0
20260902121841 70 304 6.0 20.0 0.00 0.00 0.00 50 1007.9
20260902121326 70 302 5.0 16.0 0.00 0.00 0.00 53 1008.0
20260902120834 70 319 5.0 17.0 0.00 0.00 0.00 55 1007.8
20260902120340 70 283 6.0 17.0 0.00 0.00 0.00 56 1007.8
20260902115828 69 298 7.0 15.0 0.00 0.00 0.00 57 1007.9
20260902115349 69 309 7.0 17.0 0.00 0.00 0.00 58 1007.8
20260902114829 70 318 6.0 17.0 0.00 0.00 0.00 57 1008.0
20260902114330 71 317 3.0 13.0 0.00 0.00 0.00 58 1007.8
20260902113830 71 290 5.0 13.0 0.00 0.00 0.00 58 1008.0
20260902113332 70 292 6.0 13.0 0.00 0.00 0.00 59 1007.8
20260902112840 69 304 5.0 11.0 0.00 0.00 0.00 60 1007.9
20260902112328 69 266 5.0 12.0 0.00 0.00 0.00 61 1008.0
20260902111850 68 310 6.0 18.0 0.00 0.00 0.00 61 1008.0
20260902111330 69 293 7.0 18.0 0.00 0.00 0.00 60 1008.1
20260902110830 69 279 3.0 14.0 0.00 0.00 0.00 64 1008.1
20260902110340 68 294 4.0 12.0 0.00 0.00 0.00 69 1008.2
20260902105828 67 229 1.0 5.0 0.00 0.00 0.00 70 1008.2
20260902105329 67 275 2.0 10.0 0.00 0.00 0.00 71 1008.3
20260902104828 67 303 2.0 10.0 0.00 0.00 0.00 69 1008.2
20260902104330 67 290 3.0 10.0 0.00 0.00 0.00 69 1008.2
20260902103850 68 304 4.0 11.0 0.00 0.00 0.00 69 1008.3
20260902103350 68 187 4.0 12.0 0.00 0.00 0.00 69 1008.1
20260902102839 68 288 3.0 12.0 0.00 0.00 0.00 69 1008.2
20260902102329 69 286 3.0 8.0 0.00 0.00 0.00 69 1008.3
20260902101830 69 82 2.0 11.0 0.00 0.00 0.00 69 1008.3
20260902101331 69 167 3.0 11.0 0.00 0.00 0.00 69 1008.3
20260902100831 69 293 5.0 10.0 0.00 0.00 0.00 69 1008.3
20260902100338 69 197 2.0 9.0 0.00 0.00 0.00 72 1008.3
20260902095829 68 213 3.0 11.0 0.00 0.00 0.00 71 1008.4
20260902095328 67 326 4.0 11.0 0.00 0.00 0.00 73 1008.4
20260902094849 67 275 4.0 10.0 0.00 0.00 0.00 74 1008.3
20260902094330 66 245 3.0 12.0 0.00 0.00 0.00 76 1008.3
20260902093829 66 273 3.0 12.0 0.00 0.00 0.00 78 1008.3
20260902093350 66 213 2.0 9.0 0.00 0.00 0.00 78 1008.5
20260902092830 66 266 2.0 9.0 0.00 0.00 0.00 77 1008.6
20260902092331 65 294 3.0 12.0 0.00 0.00 0.00 77 1008.5
20260902091832 65 199 3.0 12.0 0.00 0.00 0.00 79 1008.6
20260902091333 65 168 3.0 8.0 0.00 0.00 0.00 79 1008.6
20260902090840 64 227 3.0 8.0 0.00 0.00 0.00 81 1008.5
20260902090329 64 68 2.0 7.0 0.00 0.00 0.00 82 1008.7
20260902085850 63 217 2.0 9.0 0.00 0.00 0.00 82 1008.7
20260902085358 63 287 3.0 11.0 0.00 0.00 0.00 81 1008.7
20260902084852 64 327 3.0 8.0 0.00 0.00 0.00 80 1008.7
20260902084328 64 321 3.0 8.0 0.00 0.00 0.00 80 1008.7
20260902083836 64 323 1.0 11.0 0.00 0.00 0.00 80 1008.7
20260902083324 64 302 5.0 14.0 0.00 0.00 0.00 80 1008.7
20260902082846 65 286 6.0 14.0 0.00 0.00 0.00 79 1008.6
20260902082327 65 292 2.0 11.0 0.00 0.00 0.00 80 1008.6
20260902081835 65 297 4.0 11.0 0.00 0.00 0.00 79 1008.6
20260902081325 65 295 3.0 10.0 0.00 0.00 0.00 80 1008.6
20260902080824 65 162 2.0 9.0 0.00 0.00 0.00 81 1008.6
20260902080324 64 232 3.0 9.0 0.00 0.00 0.00 81 1008.5
20260902075825 64 260 2.0 6.0 0.00 0.00 0.00 80 1008.6
20260902075355 64 183 2.0 8.0 0.00 0.00 0.00 81 1008.5
20260902074841 64 188 3.0 9.0 0.00 0.00 0.00 81 1008.6
20260902074330 64 314 3.0 13.0 0.00 0.00 0.00 82 1008.5
20260902073850 63 298 5.0 13.0 0.00 0.00 0.00 81 1008.5
20260902073350 63 284 2.0 10.0 0.00 0.00 0.00 83 1008.5
20260902072829 63 294 1.0 6.0 0.00 0.00 0.00 84 1008.6
20260902072329 62 51 2.0 6.0 0.00 0.00 0.00 85 1008.6
20260902071850 62 199 2.0 7.0 0.00 0.00 0.00 84 1008.6
20260902071338 62 199 2.0 7.0 0.00 0.00 0.00 84 1008.6
20260902070824 61 202 2.0 9.0 0.00 0.00 0.00 85 1008.6
20260902070330 61 344 4.0 9.0 0.00 0.00 0.00 85 1008.6
20260902065829 61 225 3.0 9.0 0.00 0.00 0.00 85 1008.6
20260902065349 60 200 2.0 9.0 0.00 0.00 0.00 85 1008.6
20260902064828 60 173 3.0 10.0 0.00 0.00 0.00 85 1008.4
20260902064329 60 176 2.0 10.0 0.00 0.00 0.00 86 1008.4
20260902063829 60 355 3.0 14.0 0.00 0.00 0.00 85 1008.6
20260902063349 60 250 5.0 13.0 0.00 0.00 0.00 85 1008.6
20260902062831 60 300 4.0 12.0 0.00 0.00 0.00 86 1008.7
20260902062400 60 282 4.0 12.0 0.00 0.00 0.00 86 1008.6
20260902061828 60 26 2.0 6.0 0.00 0.00 0.00 86 1008.5
20260902061356 60 323 2.0 6.0 0.00 0.00 0.00 86 1008.5
20260902060824 60 278 1.0 6.0 0.00 0.00 0.00 87 1008.5
20260902060331 59 262 1.0 5.0 0.00 0.00 0.00 87 1008.5
20260902055826 59 280 2.0 7.0 0.00 0.00 0.00 87 1008.5
20260902055327 59 299 2.0 7.0 0.00 0.00 0.00 87 1008.4
20260902054828 59 287 1.0 7.0 0.00 0.00 0.00 87 1008.5
20260902054334 59 142 1.0 7.0 0.00 0.00 0.00 87 1008.4
20260902053902 58 223 2.0 7.0 0.00 0.00 0.00 88 1008.4
20260902053327 58 16 2.0 8.0 0.00 0.00 0.00 88 1008.4
20260902052825 58 279 1.0 8.0 0.00 0.00 0.00 88 1008.5
20260902052326 58 246 1.0 5.0 0.00 0.00 0.00 88 1008.5
20260902051827 58 230 2.0 6.0 0.00 0.00 0.00 88 1008.5
20260902051335 57 300 1.0 6.0 0.00 0.00 0.00 88 1008.5
20260902050829 57 191 1.0 6.0 0.00 0.00 0.00 88 1008.6
20260902050337 57 238 1.0 6.0 0.00 0.00 0.00 88 1008.6
20260902045827 57 80 1.0 7.0 0.00 0.00 0.00 88 1008.6
20260902045337 57 206 1.0 5.0 0.00 0.00 0.00 88 1008.6
20260902044846 57 241 2.0 5.0 0.00 0.00 0.00 88 1008.7
20260902044354 57 263 1.0 4.0 0.00 0.00 0.00 88 1008.7
20260902043840 57 218 1.0 7.0 0.00 0.00 0.00 87 1008.7
20260902043329 57 290 2.0 7.0 0.00 0.00 0.00 87 1008.6
20260902042830 57 185 1.0 5.0 0.00 0.00 0.00 87 1008.6
20260902042330 58 253 1.0 8.0 0.00 0.00 0.00 87 1008.6
20260902041830 58 225 3.0 8.0 0.00 0.00 0.00 87 1008.6
20260902041354 58 290 2.0 11.0 0.00 0.00 0.00 86 1008.6
20260902040824 58 311 2.0 8.0 0.00 0.00 0.00 86 1008.6
20260902040333 58 302 2.0 7.0 0.00 0.00 0.00 86 1008.6
20260902035857 58 284 2.0 10.0 0.00 0.00 0.00 86 1008.6
20260902035329 58 18 2.0 12.0 0.00 0.00 0.00 86 1008.6
20260902034825 58 360 4.0 12.0 0.00 0.00 0.00 86 1008.6
20260902034326 58 236 3.0 8.0 0.00 0.00 0.00 86 1008.8
20260902033825 58 273 2.0 8.0 0.00 0.00 0.00 87 1008.8
20260902033326 58 298 2.0 8.0 0.00 0.00 0.00 87 1008.8
20260902032828 59 315 3.0 13.0 0.00 0.00 0.00 87 1008.8
20260902032327 59 325 4.0 13.0 0.00 0.00 0.00 87 1008.8
20260902031836 59 330 2.0 7.0 0.00 0.00 0.00 88 1008.8
20260902031324 59 246 1.0 4.0 0.00 0.00 0.00 88 1008.8
20260902030826 59 172 1.0 5.0 0.00 0.00 0.00 88 1008.8
20260902030326 59 219 0.0 5.0 0.00 0.00 0.00 88 1008.8
20260902025847 59 313 0.0 2.0 0.00 0.00 0.00 87 1008.8
20260902025334 59 249 1.0 5.0 0.00 0.00 0.00 87 1008.9
20260902024824 59 274 1.0 8.0 0.00 0.00 0.00 87 1008.8
20260902024347 59 303 1.0 8.0 0.00 0.00 0.00 87 1008.9
20260902023826 59 295 3.0 8.0 0.00 0.00 0.00 88 1008.9
20260902023326 59 304 2.0 8.0 0.00 0.00 0.00 89 1008.9
20260902022827 59 336 2.0 8.0 0.00 0.00 0.00 89 1008.9
20260902022334 59 207 1.0 5.0 0.00 0.00 0.00 89 1008.8
20260902021843 59 177 2.0 6.0 0.00 0.00 0.00 89 1008.8
20260902021345 59 298 2.0 8.0 0.00 0.00 0.00 89 1008.8
20260902020825 58 315 2.0 8.0 0.00 0.00 0.00 90 1008.8
20260902020325 58 169 2.0 6.0 0.00 0.00 0.00 90 1008.8
20260902015826 58 192 1.0 5.0 0.00 0.00 0.00 90 1008.8
20260902015327 58 259 1.0 4.0 0.00 0.00 0.00 90 1008.9
20260902014827 58 221 1.0 4.0 0.00 0.00 0.00 90 1008.8
20260902014335 57 240 2.0 7.0 0.00 0.00 0.00 90 1008.9
20260902013824 57 295 2.0 7.0 0.00 0.00 0.00 90 1008.9
20260902013325 57 182 2.0 5.0 0.00 0.00 0.00 90 1008.9
20260902012827 57 221 2.0 5.0 0.00 0.00 0.00 89 1008.9
20260902012347 57 186 2.0 5.0 0.00 0.00 0.00 89 1008.9
20260902011827 57 192 2.0 6.0 0.00 0.00 0.00 89 1008.9
20260902011347 57 206 2.0 6.0 0.00 0.00 0.00 89 1008.9
20260902010826 57 305 1.0 5.0 0.00 0.00 0.00 89 1008.9
20260902010327 57 173 2.0 5.0 0.00 0.00 0.00 89 1008.9
20260902005833 57 211 1.0 5.0 0.00 0.00 0.00 89 1008.9
20260902005340 57 180 2.0 5.0 0.00 0.00 0.00 89 1008.9
20260902004826 57 173 1.0 4.0 0.00 0.00 0.00 89 1008.9
20260902004353 57 185 2.0 6.0 0.00 0.00 0.00 89 1009.0
20260902003852 57 202 2.0 8.0 0.00 0.00 0.00 89 1009.0
20260902003332 57 199 1.0 4.0 0.00 0.00 0.00 89 1009.0
20260902002831 57 214 1.0 3.0 0.00 0.00 0.00 89 1009.0
20260902002351 57 205 1.0 6.0 0.00 0.00 0.00 89 1009.0
20260902001840 57 180 1.0 6.0 0.00 0.00 0.00 89 1009.1
20260902001329 57 190 1.0 4.0 0.00 0.00 0.00 89 1009.1
20260902000831 57 273 1.0 5.0 0.00 0.00 0.00 89 1009.1
20260902000330 57 191 2.0 5.0 0.00 0.00 0.00 89 1009.1
20260901235900 58 201 1.0 5.0 0.00 0.00 0.00 89 1009.0
20260901235328 58 215 1.0 3.0 0.00 0.00 0.00 89 1009.0
20260901234830 58 210 2.0 5.0 0.00 0.00 0.00 89 1009.0
20260901234332 58 190 3.0 5.0 0.00 0.00 0.00 89 1009.1
20260901233832 58 218 2.0 6.0 0.00 0.00 0.00 89 1009.2
20260901233329 58 192 3.0 6.0 0.00 0.00 0.00 89 1009.2
20260901232832 58 225 1.0 4.0 0.00 0.00 0.00 89 1009.2
20260901232331 58 184 1.0 4.0 0.00 0.00 0.00 89 1009.2
20260901231853 58 178 1.0 4.0 0.00 0.00 0.00 89 1009.2
20260901231351 58 174 0.0 4.0 0.00 0.00 0.00 89 1009.2
20260901230840 58 198 1.0 4.0 0.00 0.00 0.00 89 1009.2
20260901230329 58 283 1.0 3.0 0.00 0.00 0.00 88 1009.2
20260901225850 58 179 0.0 4.0 0.00 0.00 0.00 88 1009.1
20260901225330 58 318 0.0 2.0 0.00 0.00 0.00 88 1009.1
20260901224831 58 287 1.0 4.0 0.00 0.00 0.00 88 1009.2
20260901224340 58 261 1.0 4.0 0.00 0.00 0.00 88 1009.2
20260901223828 58 249 1.0 3.0 0.00 0.00 0.00 88 1009.2
20260901223349 58 288 0.0 4.0 0.00 0.00 0.00 88 1009.1
20260901222830 58 286 2.0 5.0 0.00 0.00 0.00 88 1009.1
20260901222331 58 318 2.0 7.0 0.00 0.00 0.00 88 1009.2
20260901221831 58 295 2.0 7.0 0.00 0.00 0.00 88 1009.2
20260901221331 58 290 1.0 4.0 0.00 0.00 0.00 88 1009.2
20260901220839 58 272 1.0 4.0 0.00 0.00 0.00 88 1009.2
20260901220325 58 84 1.0 3.0 0.00 0.00 0.00 88 1009.2
20260901215835 58 198 2.0 3.0 0.00 0.00 0.00 88 1009.2
20260901215324 58 227 0.0 4.0 0.00 0.00 0.00 87 1009.1
20260901214831 58 301 1.0 4.0 0.00 0.00 0.00 88 1009.2
20260901214339 58 188 0.0 3.0 0.00 0.00 0.00 88 1009.2
20260901213827 58 215 1.0 3.0 0.00 0.00 0.00 88 1009.2
20260901213336 58 275 1.0 3.0 0.00 0.00 0.00 88 1009.2
20260901212824 58 234 0.0 3.0 0.00 0.00 0.00 88 1009.2
20260901212352 58 250 0.0 2.0 0.00 0.00 0.00 87 1009.1
20260901211839 58 192 0.0 2.0 0.00 0.00 0.00 87 1009.1
20260901211329 58 192 0.0 1.0 0.00 0.00 0.00 87 1009.1
20260901210829 58 192 0.0 2.0 0.00 0.00 0.00 87 1009.1
20260901210329 58 192 0.0 2.0 0.00 0.00 0.00 87 1009.1
20260901205830 58 192 0.0 2.0 0.00 0.00 0.00 86 1009.1
20260901205338 58 192 0.0 2.0 0.00 0.00 0.00 86 1009.1
20260901204827 58 192 0.0 2.0 0.00 0.00 0.00 86 1009.1
20260901204336 58 192 0.0 2.0 0.00 0.00 0.00 86 1009.1
20260901203824 58 192 1.0 2.0 0.00 0.00 0.00 86 1009.1
20260901203331 59 192 0.0 2.0 0.00 0.00 0.00 85 1009.1
20260901202838 59 192 0.0 2.0 0.00 0.00 0.00 85 1009.1
20260901202325 59 192 0.0 2.0 0.00 0.00 0.00 85 1009.1
20260901201852 59 192 0.0 2.0 0.00 0.00 0.00 84 1009.1
20260901201330 60 192 0.0 2.0 0.00 0.00 0.00 83 1009.1
20260901200830 60 192 0.0 2.0 0.00 0.00 0.00 83 1009.1
20260901200330 60 192 0.0 2.0 0.00 0.00 0.00 82 1009.1
20260901195839 61 192 0.0 2.0 0.00 0.00 0.00 82 1009.0
20260901195328 61 192 0.0 1.0 0.00 0.00 0.00 82 1009.1
20260901194830 61 192 0.0 3.0 0.00 0.00 0.00 82 1009.1
20260901194332 61 192 1.0 3.0 0.00 0.00 0.00 82 1009.0
20260901193840 61 192 1.0 3.0 0.00 0.00 0.00 82 1009.0
20260901193329 61 210 1.0 3.0 0.00 0.00 0.00 82 1009.1
20260901192829 61 180 1.0 3.0 0.00 0.00 0.00 82 1009.1
20260901192330 61 272 0.0 2.0 0.00 0.00 0.00 82 1009.1
20260901191839 61 272 0.0 2.0 0.00 0.00 0.00 82 1009.1